STARLINK-3103, 49177

Orbit data source: Space-Track

STARLINK-3103, 49177 is a payload satellite owned by SpaceX/Seattle (US) in LEO that was launched on Tue, 14 Sep 2021 UTC via an FALCON 9 launch vehicle from the Air Force Western Test Range (AFWTR). Payload-class satellites include a variety of spacecraft equipped with specific instruments for various scientific and technological missions. These include communications satellites like Starlink; space stations such as the ISS; scientific satellites like the Hubble; Earth observation satellites from companies like Planet Labs, Umbra, and HawkEye 360; GPS; miniature CubeSats for education and research; and military/defense satellites.

Loading next visibility...
Identifier
49177, 2021-082AZ
Orbit
LEO
Country
Flag of USUS
Related business
Manufacturer
SpaceX/Seattle
Mission
Operational Commercial Communications
Bus & Motor
STARLINK, Unknown motor
Mass
297 kg wet, ~275 kg dry
Launch date (UTC)
2021-09-14 (4 years ago)
Launch vehicle
FALCON 9
Launch site
Air Force Western Test Range (AFWTR)
Object type
Payload
Rocket body
Debris
Shape & HBR
Box + 1 Pan, 10.1 m
Radar Cross Section
13.562 m², Large (>1 m²)

Expand to show TLE details & history
Last TLE update: 17 hours ago

TLE from 17 hours ago
0 STARLINK-3103
1 49177U 21082AZ  26035.27926217 -.00004064  00000-0 -33280-3 0  9998
2 49177  70.0018 338.7005 0002912 270.4427  89.6399 14.98354383243159
Epoch: 2026-02-04T06:42Z
TLE epoch observation values (Epoch: 2026-02-04T06:42:08.251Z)
Latitude
0.00003°
Longitude
103.71801°
Altitude
574.392 km
Speed
7.574 km/s
True Right ascension
22h 34m 48s
True Declination
0° 00' 00"
Sunlit
Object was in daylight at epoch
Visualization orbit readout
Latitude
Unknown
Longitude
Unknown
Altitude
Unknown
Speed
Unknown
Apparent Right ascension
Unknown
Apparent Declination
Unknown
Sunlit
N/A
Visualization observer readout
Local Sidereal Time
01:42:24
Azimuth
Unknown
Elevation
Unknown
Doppler factor
Unknown
Orbital elements
Apogee altitude
571.952 km
Perigee altitude
567.905 km
Semi-major axis
6,948.066 km
Eccentricity
0.00029
Inclination
70.0018°
RAAN
338.7005°
Arg. of periapsis
270.4427°
True anomaly
89.67327°
Mean anomaly
89.6399°
Eccentric anomaly
89.65658°
Mean motion
3.74755 °/min
Orbital period
96.06 mins
BSTAR
-0.0003328
Loading maneuver chart data...
Computing Atmospheric mass density...
Loading historical data...
Loading historical data...
Loading historical data...
Loading historical data...
Loading historical data...
Loading historical data...
Loading historical data...

Documentation

Showing up to 5 results
|